Troy, MI

5:54 PM EDT on April 25, 2017 (GMT -0400)
Troy

Weather History for KVLL - April, 2014

Change the Weather History Date:

Monday, April 7, 2014

  Actual Average (KDET) Record (KDET)
Temperature  
Mean Temperature 42 °F -  
Max Temperature 50 °F 53 °F 83 °F (1991)
Min Temperature 34 °F 35 °F 17 °F (1982)
Degree Days  
Heating Degree Days 23    
Moisture  
Dew Point 29 °F    
Average Humidity 62    
Maximum Humidity 95    
Minimum Humidity 42    
Precipitation  
Precipitation 0.00 in - - ()
Sea Level Pressure  
Sea Level Pressure 29.78 in    
Wind  
Wind Speed 5 mph (NE)    
Max Wind Speed 14 mph    
Max Gust Speed 17 mph    
Visibility 8 miles    
Events Rain    
Averages and records for this station are not official NWS values.
T = Trace of Precipitation, MM = Missing Value Source: NWS Daily Summary

Daily Weather History Graph

Daily Weather History Graph

Search for Another Location

Airport or City:

Trip Planner

Search our weather history database for the weather conditions in past years. The results will help you decide how hot, cold, wet, or windy it might be!

Date:

Astronomy

Apr. 07, 2014 Rise Set
Actual Time 7:04 AM EDT 8:05 PM EDT
Civil Twilight 6:36 AM EDT 8:34 PM EDT
Nautical Twilight 6:01 AM EDT 9:08 PM EDT
Astronomical Twilight 5:26 AM EDT 9:44 PM EDT
Moon 12:56 PM EDT (4/7) 2:45 AM EDT (4/7)
Length of Visible Light 13h 58m
Length of Day
13h 00m
First Quarter, 53% of the Moon is Illuminated
Apr 7
First Quarter
Apr 15
Full
Apr 22
Last Quarter
Apr 29
New
May 6
First Quarter

Hourly Weather History & Observations

Time (EDT) Temp. Windchill Dew Point Humidity Pressure Visibility Wind Dir Wind Speed Gust Speed Precip Events Conditions
12:14 AM 41.9 °F - 23.5 °F 48% 30.05 in 10.0 mi Calm Calm - N/A   Scattered Clouds
12:35 AM 41.2 °F - 23.5 °F 50% 30.04 in 10.0 mi Calm Calm - N/A   Scattered Clouds
12:55 AM 40.6 °F - 23.9 °F 51% 30.04 in 10.0 mi Calm Calm - N/A   Clear
1:15 AM 41.0 °F - 23.5 °F 50% 30.04 in 10.0 mi Calm Calm - N/A   Clear
1:35 AM 40.6 °F - 22.1 °F 48% 30.03 in 10.0 mi Calm Calm - N/A   Clear
1:54 AM 40.3 °F - 22.1 °F 48% 30.03 in 10.0 mi Calm Calm - N/A   Clear
2:15 AM 39.6 °F 37.4 °F 22.3 °F 50% 30.03 in 10.0 mi East 3.5 mph - N/A   Clear
2:35 AM 39.6 °F 35.4 °F 22.1 °F 50% 30.02 in 10.0 mi ENE 5.8 mph - N/A   Clear
2:54 AM 39.2 °F 37.0 °F 21.9 °F 50% 30.00 in 10.0 mi East 3.5 mph - N/A   Clear
3:15 AM 37.9 °F 34.4 °F 22.8 °F 55% 29.99 in 10.0 mi ENE 4.6 mph - N/A   Clear
3:35 AM 37.4 °F 34.9 °F 23.0 °F 56% 29.99 in 10.0 mi NE 3.5 mph - N/A   Clear
3:55 AM 36.7 °F 34.1 °F 23.7 °F 59% 29.98 in 10.0 mi NNE 3.5 mph - N/A   Clear
4:15 AM 35.2 °F 32.4 °F 24.4 °F 65% 29.95 in 10.0 mi NNE 3.5 mph - N/A   Clear
4:34 AM 35.1 °F 32.2 °F 24.8 °F 66% 29.95 in 10.0 mi NNE 3.5 mph - N/A   Clear
4:55 AM 34.7 °F 31.8 °F 25.0 °F 68% 29.94 in 10.0 mi NNE 3.5 mph - N/A   Clear
5:15 AM 35.6 °F 31.7 °F 23.7 °F 62% 29.93 in 10.0 mi NE 4.6 mph - N/A   Clear
5:35 AM 35.8 °F 33.0 °F 23.2 °F 60% 29.91 in 10.0 mi NNE 3.5 mph - N/A   Clear
5:55 AM 34.2 °F 31.2 °F 23.9 °F 66% 29.92 in 10.0 mi NE 3.5 mph - N/A   Clear
6:15 AM 34.7 °F 31.8 °F 23.4 °F 63% 29.91 in 10.0 mi NNE 3.5 mph - N/A   Clear
6:35 AM 34.7 °F 29.6 °F 23.0 °F 62% 29.91 in 10.0 mi NNE 5.8 mph - N/A   Clear
6:55 AM 35.8 °F 30.9 °F 22.3 °F 58% 29.92 in 10.0 mi NE 5.8 mph - N/A   Clear
7:15 AM 36.7 °F 31.2 °F 21.9 °F 55% 29.90 in 10.0 mi NE 6.9 mph - N/A   Clear
7:35 AM 36.7 °F 32.9 °F 21.7 °F 55% 29.91 in 10.0 mi ENE 4.6 mph - N/A   Clear
7:55 AM 37.0 °F 32.4 °F 22.1 °F 55% 29.91 in 10.0 mi NE 5.8 mph - N/A   Clear
8:15 AM 37.8 °F 31.8 °F 22.1 °F 53% 29.90 in 10.0 mi NE 8.1 mph - N/A   Clear
8:35 AM 38.3 °F 33.9 °F 22.8 °F 54% 29.90 in 10.0 mi NNE 5.8 mph - N/A   Clear
8:55 AM 39.2 °F 35.0 °F 22.8 °F 52% 29.89 in 10.0 mi NNE 5.8 mph - N/A   Clear
9:15 AM 39.7 °F 35.6 °F 23.4 °F 52% 29.88 in 10.0 mi NE 5.8 mph - N/A   Clear
9:35 AM 40.1 °F 36.1 °F 23.9 °F 52% 29.88 in 10.0 mi NE 5.8 mph - N/A   Clear
9:55 AM 40.5 °F 35.8 °F 23.9 °F 52% 29.88 in 10.0 mi NNE 6.9 mph - N/A   Clear
10:15 AM 41.0 °F 38.0 °F 24.1 °F 51% 29.89 in 10.0 mi ENE 4.6 mph - N/A   Clear
10:35 AM 41.5 °F 37.8 °F 24.6 °F 51% 29.88 in 10.0 mi NNE 5.8 mph - N/A   Scattered Clouds
10:55 AM 42.8 °F 39.3 °F 25.0 °F 49% 29.87 in 10.0 mi NE 5.8 mph - N/A   Scattered Clouds
11:15 AM 43.0 °F 38.8 °F 24.4 °F 48% 29.85 in 10.0 mi ENE 6.9 mph - N/A   Clear
11:35 AM 43.5 °F 37.9 °F 24.8 °F 48% 29.84 in 10.0 mi ENE 10.4 mph - N/A   Scattered Clouds
11:54 AM 43.7 °F 39.1 °F 25.3 °F 48% 29.82 in 10.0 mi ENE 8.1 mph - N/A   Mostly Cloudy
12:15 PM 44.2 °F 38.8 °F 25.7 °F 48% 29.80 in 10.0 mi NE 10.4 mph - N/A   Overcast
12:35 PM 45.0 °F 40.1 °F 25.9 °F 47% 29.80 in 10.0 mi East 9.2 mph - N/A   Overcast
12:55 PM 45.7 °F 40.6 °F 25.9 °F 46% 29.77 in 10.0 mi ENE 10.4 mph - N/A   Scattered Clouds
1:15 PM 46.6 °F - 25.5 °F 44% 29.77 in 10.0 mi East 9.2 mph - N/A   Mostly Cloudy
1:34 PM 47.7 °F - 25.3 °F 42% 29.76 in 10.0 mi ENE 6.9 mph - N/A   Overcast
1:55 PM 48.4 °F - 25.9 °F 42% 29.72 in 10.0 mi NE 11.5 mph - N/A   Mostly Cloudy
2:15 PM 48.2 °F - 26.1 °F 42% 29.70 in 10.0 mi ENE 10.4 mph - N/A   Overcast
2:34 PM 48.7 °F - 26.6 °F 42% 29.69 in 10.0 mi NE 10.4 mph - N/A   Overcast
2:55 PM 48.7 °F - 27.5 °F 44% 29.66 in 10.0 mi ENE 13.8 mph 17.3 mph N/A   Overcast
3:15 PM 48.9 °F - 28.8 °F 46% 29.66 in 10.0 mi ENE 11.5 mph - N/A   Overcast
3:35 PM 49.6 °F - 29.3 °F 46% 29.64 in 10.0 mi ENE 10.4 mph - N/A   Overcast
4:15 PM 50.4 °F - 30.6 °F 47% 29.62 in 10.0 mi ENE 9.2 mph 16.1 mph N/A   Overcast
4:35 PM 50.4 °F - 31.3 °F 48% 29.61 in 10.0 mi NE 9.2 mph - N/A   Overcast
4:55 PM 50.0 °F - 31.8 °F 50% 29.62 in 10.0 mi NNE 8.1 mph - N/A   Overcast
5:15 PM 50.0 °F - 32.9 °F 52% 29.62 in 10.0 mi ENE 9.2 mph - N/A Rain Light Rain
5:35 PM 49.1 °F - 34.5 °F 57% 29.62 in 10.0 mi NE 4.6 mph - N/A Rain Light Rain
5:55 PM 46.8 °F - 39.2 °F 75% 29.63 in 3.0 mi SE 3.5 mph - N/A Rain Rain
6:15 PM 45.0 °F 42.6 °F 39.7 °F 82% 29.63 in 2.0 mi East 4.6 mph - N/A Rain Light Rain
6:35 PM 44.1 °F 40.8 °F 39.9 °F 85% 29.62 in 3.0 mi ENE 5.8 mph - N/A   Overcast
6:55 PM 43.7 °F 39.1 °F 40.1 °F 87% 29.60 in 3.0 mi NE 8.1 mph - N/A Rain Rain
7:14 PM 43.3 °F 38.1 °F 41.0 °F 91% 29.59 in 3.0 mi NNE 9.2 mph - N/A   Overcast
7:35 PM 42.6 °F 37.2 °F 40.5 °F 92% 29.59 in 5.0 mi North 9.2 mph - N/A Rain Light Rain
7:55 PM 41.9 °F 36.9 °F 39.7 °F 92% 29.58 in 4.0 mi North 8.1 mph - N/A Rain Light Rain
8:15 PM 41.5 °F 35.9 °F 39.7 °F 93% 29.55 in 5.0 mi North 9.2 mph - N/A Rain Light Rain
8:35 PM 41.2 °F 36.6 °F 39.4 °F 93% 29.55 in 7.0 mi North 6.9 mph - N/A Rain Rain
8:55 PM 41.2 °F 36.0 °F 39.4 °F 93% 29.55 in 5.0 mi North 8.1 mph - N/A Rain Light Rain
9:15 PM 41.4 °F 36.8 °F 39.6 °F 93% 29.55 in 5.0 mi North 6.9 mph - N/A Rain Light Rain
9:35 PM 41.2 °F 36.6 °F 39.6 °F 94% 29.55 in 5.0 mi NNW 6.9 mph - N/A Rain Light Rain
9:55 PM 41.4 °F 37.6 °F 39.7 °F 94% 29.54 in 7.0 mi North 5.8 mph - N/A Rain Light Rain
10:15 PM 41.2 °F 36.0 °F 39.7 °F 95% 29.52 in 5.0 mi North 8.1 mph - N/A Rain Light Rain
10:35 PM 41.2 °F 35.5 °F 39.9 °F 95% 29.51 in 5.0 mi North 9.2 mph - N/A Rain Light Rain
10:54 PM 41.0 °F 35.8 °F 39.6 °F 95% 29.50 in 5.0 mi North 8.1 mph - N/A Rain Light Rain
11:15 PM 41.0 °F 35.8 °F 39.4 °F 94% 29.49 in 5.0 mi NNW 8.1 mph - N/A Rain Rain
11:35 PM 41.0 °F 34.7 °F 39.4 °F 94% 29.48 in 5.0 mi NNW 10.4 mph 16.1 mph N/A Rain Light Rain
11:54 PM 40.6 °F 34.8 °F 39.2 °F 95% 29.48 in 5.0 mi North 9.2 mph 16.1 mph N/A Rain Light Rain